Beaumont, TX

6:27 PM CST on January 23, 2018 (GMT -0600)
Southeast Texas Regional

Weather History for KBPT - November, 2010

Change the Weather History Date:

Sunday, November 7, 2010

  Actual Average Record
Temperature  
Mean Temperature 56 °F 64 °F  
Max Temperature 69 °F 74 °F 89 °F (1919)
Min Temperature 42 °F 54 °F 29 °F (1959)
Degree Days  
Heating Degree Days 9 4  
Month to date heating degree days 44 22  
Since 1 July heating degree days 53 56  
Cooling Degree Days 0 3  
Month to date cooling degree days 9 23  
Year to date cooling degree days 3072 2814  
Growing Degree Days 6 (Base 50)    
Moisture  
Dew Point 38 °F    
Average Humidity 61    
Maximum Humidity 96    
Minimum Humidity 26    
Precipitation  
Precipitation 0.00 in 0.16 in 3.08 in (2015)
Month to date precipitation 2.45 1.07  
Year to date precipitation 39.87 51.85  
Snow  
Snow 0.00 in 0.00 in 0.00 in ()
Month to date snowfall 0.0 0.0  
Since 1 July snowfall 0.0 0.0  
Since 1 September snowfall 0.0 0.0  
Snow Depth 0.00 in    
Sea Level Pressure  
Sea Level Pressure 30.36 in    
Wind  
Wind Speed 3 mph (East)    
Max Wind Speed 9 mph    
Max Gust Speed 12 mph    
Visibility 10 miles    
Events      
T = Trace of Precipitation, MM = Missing Value Source: NWS Daily Summary

Daily Weather History Graph

Daily Weather History Graph

Search for Another Location

Airport or City:

Trip Planner

Search our weather history database for the weather conditions in past years. The results will help you decide how hot, cold, wet, or windy it might be!

Date:

Astronomy

Nov. 07, 2010 Rise Set
Actual Time 6:34 AM CST 5:24 PM CST
Civil Twilight 6:09 AM CST 5:49 PM CST
Nautical Twilight 5:41 AM CST 6:18 PM CST
Astronomical Twilight 5:12 AM CST 6:46 PM CST
Moon 8:09 AM CST (11/7) 6:36 PM CST (11/7)
Length of Visible Light 11h 39m
Length of Day
10h 50m
Waxing Crescent, 3% of the Moon is Illuminated
Nov 7
Waxing Crescent
Nov 13
First Quarter
Nov 21
Full
Nov 28
Last Quarter
Dec 5
New

Hourly Weather History & Observations

Time (CST) Temp. Windchill Dew Point Humidity Pressure Visibility Wind Dir Wind Speed Gust Speed Precip Events Conditions
12:53 AM 44.1 °F 41.5 °F 42.1 °F 93% 30.41 in 10.0 mi North 4.6 mph - N/A   Clear
1:53 AM 44.1 °F - 41.0 °F 89% 30.41 in 9.0 mi Calm Calm - N/A   Clear
1:53 AM 44.1 °F - 42.1 °F 93% 30.40 in 5.0 mi Calm Calm - N/A   Clear
2:53 AM 43.0 °F - 41.0 °F 93% 30.40 in 7.0 mi Calm Calm - N/A   Clear
3:53 AM 43.0 °F - 41.0 °F 93% 30.39 in 8.0 mi Calm Calm - N/A   Clear
4:53 AM 44.1 °F 41.5 °F 41.0 °F 89% 30.40 in 10.0 mi NE 4.6 mph - N/A   Clear
5:53 AM 45.0 °F 41.8 °F 39.9 °F 82% 30.40 in 10.0 mi NE 5.8 mph - N/A   Clear
6:53 AM 46.0 °F 43.1 °F 39.9 °F 79% 30.41 in 10.0 mi NE 5.8 mph - N/A   Clear
7:53 AM 51.1 °F - 42.1 °F 71% 30.43 in 10.0 mi NE 5.8 mph - N/A   Clear
8:53 AM 55.9 °F - 39.0 °F 53% 30.44 in 10.0 mi East 5.8 mph - N/A   Clear
9:53 AM 60.1 °F - 34.0 °F 38% 30.44 in 10.0 mi East 5.8 mph - N/A   Clear
10:53 AM 63.0 °F - 32.0 °F 31% 30.43 in 10.0 mi East 6.9 mph - N/A   Clear
11:53 AM 64.9 °F - 32.0 °F 29% 30.40 in 10.0 mi ESE 6.9 mph - N/A   Clear
12:53 PM 66.0 °F - 33.1 °F 29% 30.36 in 10.0 mi Variable 3.5 mph - N/A   Clear
1:53 PM 68.0 °F - 33.1 °F 27% 30.33 in 10.0 mi ENE 3.5 mph - N/A   Clear
2:53 PM 68.0 °F - 32.0 °F 26% 30.32 in 10.0 mi Variable 3.5 mph - N/A   Clear
3:53 PM 66.9 °F - 32.0 °F 27% 30.30 in 10.0 mi SE 4.6 mph - N/A   Clear
4:53 PM 62.1 °F - 34.0 °F 35% 30.30 in 10.0 mi SE 4.6 mph - N/A   Clear
5:53 PM 57.0 °F - 36.0 °F 45% 30.29 in 10.0 mi SSE 3.5 mph - N/A   Clear
6:53 PM 53.1 °F - 41.0 °F 64% 30.29 in 10.0 mi Calm Calm - N/A   Clear
7:53 PM 51.1 °F - 43.0 °F 74% 30.29 in 10.0 mi Calm Calm - N/A   Clear
8:53 PM 50.0 °F - 44.1 °F 80% 30.28 in 10.0 mi Calm Calm - N/A   Clear
9:53 PM 50.0 °F - 44.1 °F 80% 30.27 in 10.0 mi SSE 3.5 mph - N/A   Clear
10:53 PM 48.9 °F - 44.1 °F 83% 30.26 in 10.0 mi Calm Calm - N/A   Clear